When you browse on this site, cookies collect data to enhance your experience and personalize the content and advertising you see.
Visit our Privacy Policy to learn more. By continuing to use the site, you agree to this use of cookies and data.
  • En España
  • Lista de países
  • Para 7 días
  • Temperatura del agua
  • El tiempo en el mapa
  • Informadores
  • user-avatar
    Iniciar sesión

    Tiempo cada hora Worcester

    Hoy, 4 Junio, Jueves

    Tiempo Temperatura Precipitaciones Viento Presión Humedad
    00:00 +8°C° 0 mm 3 mps 752 mmHg 91%
    01:00 +7°C° 0 mm 2 mps 752 mmHg 92%
    02:00 +7°C° 0 mm 2 mps 751 mmHg 92%
    03:00 +6°C° 0 mm 2 mps 751 mmHg 93%
    04:00 +7°C° 0 mm 2 mps 751 mmHg 92%
    05:00 +8°C° 0 mm 3 mps 751 mmHg 90%
    06:00 +9°C° 0 mm 2 mps 751 mmHg 89%
    07:00 +10°C° 0 mm 3 mps 750 mmHg 83%
    08:00 +11°C° 0 mm 3 mps 750 mmHg 77%
    09:00 +12°C° 0 mm 3 mps 750 mmHg 71%
    10:00 +13°C° 0.2 mm 4 mps 749 mmHg 71%
    11:00 +13°C° 0.2 mm 4 mps 749 mmHg 71%
    12:00 +14°C° 0.2 mm 4 mps 748 mmHg 70%
    13:00 +14°C° 0.2 mm 5 mps 748 mmHg 69%
    14:00 +14°C° 0.2 mm 5 mps 747 mmHg 68%
    15:00 +15°C° 0.2 mm 5 mps 747 mmHg 68%
    16:00 +14°C° 0.2 mm 5 mps 747 mmHg 71%
    17:00 +13°C° 0.2 mm 5 mps 746 mmHg 75%
    18:00 +13°C° 0.2 mm 5 mps 746 mmHg 78%
    19:00 +12°C° 0 mm 5 mps 746 mmHg 82%
    20:00 +11°C° 0 mm 4 mps 745 mmHg 86%
    21:00 +10°C° 0 mm 4 mps 745 mmHg 91%
    22:00 +10°C° 0.1 mm 4 mps 745 mmHg 92%
    23:00 +8°C° 0.1 mm 4 mps 745 mmHg 92%

    Mañana, 5 Junio, Viernes

    Tiempo Temperatura Precipitaciones Viento Presión Humedad
    00:00 +9°C° 0.1 mm 3 mps 744 mmHg 93%
    01:00 +7°C° 0 mm 4 mps 744 mmHg 93%
    02:00 +6°C° 0 mm 4 mps 744 mmHg 93%
    03:00 +5°C° 0 mm 5 mps 743 mmHg 92%
    04:00 +6°C° 0 mm 5 mps 743 mmHg 89%
    05:00 +5°C° 0 mm 6 mps 743 mmHg 87%
    06:00 +6°C° 0 mm 7 mps 743 mmHg 84%
    07:00 +8°C° 0 mm 7 mps 743 mmHg 77%
    08:00 +9°C° 0 mm 8 mps 743 mmHg 69%
    09:00 +10°C° 0 mm 8 mps 744 mmHg 62%
    10:00 +11°C° 0.1 mm 8 mps 744 mmHg 59%
    11:00 +12°C° 0.1 mm 8 mps 743 mmHg 56%
    12:00 +12°C° 0.1 mm 8 mps 743 mmHg 52%
    13:00 +12°C° 0.3 mm 8 mps 743 mmHg 57%
    14:00 +12°C° 0.3 mm 8 mps 743 mmHg 62%
    15:00 +12°C° 0.3 mm 9 mps 743 mmHg 66%
    16:00 +11°C° 0.3 mm 8 mps 743 mmHg 68%
    17:00 +10°C° 0.3 mm 7 mps 743 mmHg 70%
    18:00 +10°C° 0.3 mm 7 mps 743 mmHg 72%
    19:00 +8°C° 0 mm 6 mps 743 mmHg 75%
    20:00 +7°C° 0 mm 5 mps 744 mmHg 78%
    21:00 +6°C° 0 mm 5 mps 744 mmHg 80%
    22:00 +5°C° 0 mm 5 mps 744 mmHg 80%
    23:00 +5°C° 0 mm 5 mps 744 mmHg 80%

    Pasado mañana, 6 Junio, Sábado

    Tiempo Temperatura Precipitaciones Viento Presión Humedad
    00:00 +3°C° 0 mm 5 mps 744 mmHg 81%
    01:00 +3°C° 0 mm 6 mps 743 mmHg 79%
    02:00 +4°C° 0 mm 7 mps 743 mmHg 78%
    03:00 +4°C° 0 mm 8 mps 742 mmHg 76%
    04:00 +5°C° 0.1 mm 9 mps 742 mmHg 79%
    05:00 +6°C° 0.1 mm 9 mps 741 mmHg 81%
    06:00 +7°C° 0.1 mm 10 mps 741 mmHg 83%
    07:00 +8°C° 0.6 mm 9 mps 741 mmHg 83%
    08:00 +10°C° 0.6 mm 9 mps 742 mmHg 83%
    09:00 +11°C° 0.6 mm 8 mps 742 mmHg 83%
    10:00 +12°C° 0.4 mm 8 mps 742 mmHg 75%
    11:00 +13°C° 0.4 mm 8 mps 743 mmHg 68%
    12:00 +15°C° 0.4 mm 8 mps 743 mmHg 61%
    13:00 +15°C° 0.1 mm 8 mps 744 mmHg 61%
    14:00 +16°C° 0.1 mm 8 mps 744 mmHg 61%
    15:00 +16°C° 0.1 mm 8 mps 745 mmHg 61%
    16:00 +15°C° 0.2 mm 7 mps 745 mmHg 65%
    17:00 +15°C° 0.2 mm 6 mps 745 mmHg 70%
    18:00 +14°C° 0.2 mm 5 mps 746 mmHg 74%
    19:00 +13°C° 0 mm 5 mps 746 mmHg 78%
    20:00 +11°C° 0 mm 4 mps 747 mmHg 83%
    21:00 +10°C° 0 mm 4 mps 747 mmHg 87%
    22:00 +8°C° 0 mm 4 mps 748 mmHg 89%
    23:00 +8°C° 0 mm 3 mps 748 mmHg 92%

    7 Junio, Domingo

    Tiempo Temperatura Precipitaciones Viento Presión Humedad
    00:00 +8°C° 0 mm 3 mps 748 mmHg 94%
    01:00 +8°C° 0 mm 3 mps 748 mmHg 94%
    02:00 +8°C° 0 mm 3 mps 748 mmHg 94%
    03:00 +8°C° 0 mm 3 mps 748 mmHg 95%
    04:00 +9°C° 0 mm 3 mps 748 mmHg 93%
    05:00 +10°C° 0 mm 3 mps 749 mmHg 91%
    06:00 +11°C° 0 mm 4 mps 749 mmHg 89%
    07:00 +11°C° 0.1 mm 4 mps 749 mmHg 87%
    08:00 +12°C° 0.1 mm 4 mps 750 mmHg 85%
    09:00 +13°C° 0.1 mm 4 mps 750 mmHg 82%
    10:00 +14°C° 0.3 mm 4 mps 751 mmHg 80%
    11:00 +15°C° 0.3 mm 4 mps 751 mmHg 78%
    12:00 +17°C° 0.3 mm 4 mps 751 mmHg 75%
    13:00 +15°C° 0.9 mm 5 mps 751 mmHg 77%
    14:00 +15°C° 0.9 mm 5 mps 752 mmHg 79%
    15:00 +15°C° 0.9 mm 5 mps 752 mmHg 81%
    16:00 +15°C° 0.3 mm 5 mps 752 mmHg 81%
    17:00 +14°C° 0.3 mm 4 mps 753 mmHg 80%
    18:00 +14°C° 0.3 mm 3 mps 753 mmHg 80%
    19:00 +13°C° 0.1 mm 3 mps 753 mmHg 84%
    20:00 +13°C° 0.1 mm 2 mps 754 mmHg 88%
    21:00 +12°C° 0.1 mm 2 mps 755 mmHg 92%
    22:00 +10°C° 0.1 mm 2 mps 755 mmHg 92%
    23:00 +10°C° 0.1 mm 2 mps 755 mmHg 93%

    8 Junio, Lunes

    Tiempo Temperatura Precipitaciones Viento Presión Humedad
    00:00 +11°C° 0.1 mm 1 mps 755 mmHg 93%
    01:00 +10°C° 0 mm 2 mps 755 mmHg 93%
    02:00 +9°C° 0 mm 2 mps 755 mmHg 93%
    03:00 +9°C° 0 mm 2 mps 756 mmHg 93%
    04:00 +9°C° 0 mm 2 mps 756 mmHg 92%
    05:00 +9°C° 0 mm 2 mps 756 mmHg 91%
    06:00 +10°C° 0 mm 3 mps 757 mmHg 91%
    07:00 +11°C° 0 mm 3 mps 757 mmHg 86%
    08:00 +12°C° 0 mm 3 mps 757 mmHg 81%
    09:00 +13°C° 0 mm 4 mps 757 mmHg 76%
    10:00 +14°C° 0 mm 4 mps 757 mmHg 73%
    11:00 +14°C° 0 mm 4 mps 758 mmHg 70%
    12:00 +15°C° 0 mm 4 mps 758 mmHg 67%
    13:00 +15°C° 0.1 mm 4 mps 758 mmHg 70%
    14:00 +14°C° 0.1 mm 4 mps 758 mmHg 73%
    15:00 +14°C° 0.1 mm 4 mps 758 mmHg 75%
    16:00 +13°C° 0.1 mm 4 mps 758 mmHg 77%
    17:00 +13°C° 0.1 mm 4 mps 758 mmHg 79%
    18:00 +12°C° 0.1 mm 3 mps 758 mmHg 81%
    19:00 +11°C° 0 mm 3 mps 759 mmHg 84%
    20:00 +10°C° 0 mm 2 mps 759 mmHg 88%
    21:00 +9°C° 0 mm 2 mps 759 mmHg 91%
    22:00 +9°C° 0 mm 2 mps 760 mmHg 92%
    23:00 +9°C° 0 mm 2 mps 760 mmHg 92%

    9 Junio, Martes

    Tiempo Temperatura Precipitaciones Viento Presión Humedad
    00:00 +8°C° 0 mm 2 mps 760 mmHg 92%
    01:00 +8°C° 0 mm 2 mps 760 mmHg 92%
    02:00 +7°C° 0 mm 2 mps 760 mmHg 92%
    03:00 +7°C° 0 mm 2 mps 760 mmHg 92%
    04:00 +7°C° 0 mm 2 mps 760 mmHg 90%
    05:00 +8°C° 0 mm 2 mps 760 mmHg 87%
    06:00 +9°C° 0 mm 2 mps 761 mmHg 85%
    07:00 +10°C° 0 mm 3 mps 761 mmHg 79%
    08:00 +12°C° 0 mm 3 mps 761 mmHg 72%
    09:00 +13°C° 0 mm 3 mps 761 mmHg 66%
    10:00 +14°C° 0 mm 3 mps 761 mmHg 63%
    11:00 +16°C° 0 mm 3 mps 761 mmHg 59%
    12:00 +17°C° 0 mm 3 mps 761 mmHg 56%
    13:00 +17°C° 0 mm 3 mps 761 mmHg 56%
    14:00 +17°C° 0 mm 3 mps 761 mmHg 56%
    15:00 +18°C° 0 mm 3 mps 761 mmHg 56%
    16:00 +17°C° 0 mm 3 mps 761 mmHg 61%
    17:00 +17°C° 0 mm 3 mps 761 mmHg 65%
    18:00 +16°C° 0 mm 3 mps 761 mmHg 69%
    19:00 +14°C° 0.1 mm 3 mps 761 mmHg 75%
    20:00 +13°C° 0.1 mm 2 mps 761 mmHg 82%
    21:00 +10°C° 0.1 mm 2 mps 762 mmHg 89%
    22:00 +10°C° 0.1 mm 2 mps 762 mmHg 90%
    23:00 +10°C° 0.1 mm 2 mps 762 mmHg 92%
    Mostrar más